Flag for United Kingdom Weather past 2 weeks in Truro, England, United Kingdom

Now
63 °F

Passing clouds.


Feels Like: 63 °F
Forecast: 60 / 68 °F
Wind: 18 mph from East

Location: Culdrose

Current Time: Sep 18, 2014 at 4:59:31 AM

Latest Report: Sep 18, 2014 at 3:50 AM


Visibility: 3 mi

Pressure: 29.68 "Hg

Humidity: 94%

Dew point: 61 °F

Location of TruroLocation

Historic Weather in Truro — Graph

°F

Truro temperature yesterday

Maximum temperature yesterday: 68 °F (at 2:50 PM)
Minimum temperature yesterday: 63 °F (at 12:50 AM)
Average temperature yesterday: 64 °F

Past Weeks' High & Low Weather Summary

 TemperatureHumidityPressure
High70 °F (Sep 7, 2:50 PM)100% (Sep 4, 6:50 AM)30.24 "Hg (Sep 4, 6:50 AM)
Low52 °F (Sep 9, 2:50 AM)53% (Sep 9, 4:50 PM)29.68 "Hg (Sep 18, 3:50 AM)
Average61 °F86%30.03 "Hg
* Reported Sep 3 3:50 AM — Sep 18 3:50 AM, Truro, Weather by CustomWeather, © 2014

Note: Actual official high and low records may vary slightly from our data, if they occured in-between our weather recording intervals... More about our weather records

Advertising

Truro weather history for previous 24 hours

 ConditionsComfort  
Time TempWeatherWind HumidityBarometerVisibility
3:50 AM
Sep 18
63 °FPassing clouds.18 mph94%29.68 "Hg3 mi
2:50 AM63 °FPartly cloudy.20 mph94%29.71 "Hg3 mi
1:50 AM63 °FPartly cloudy.18 mph94%29.71 "Hg3 mi
12:50 AM63 °FPassing clouds.18 mph94%29.71 "Hg3 mi
11:50 PM
Sep 17
64 °FPartly cloudy.20 mph88%29.71 "Hg4 mi
10:50 PM64 °FPassing clouds.21 mph88%29.71 "Hg4 mi
9:50 PM64 °FPartly cloudy.20 mph88%29.71 "Hg4 mi
8:50 PM64 °FPartly cloudy.20 mph88%29.71 "Hg4 mi
7:50 PM64 °FBroken clouds.21 mph83%29.71 "Hg4 mi
6:50 PM66 °FBroken clouds.25 mph78%29.71 "Hg4 mi
5:50 PM66 °FPartly sunny.25 mph78%29.71 "Hg3 mi
4:50 PM66 °FMore clouds than sun.21 mph78%29.71 "Hg2 mi
3:50 PM66 °FPartly sunny.25 mph78%29.71 "Hg2 mi
2:50 PM68 °FPartly sunny.25 mph78%29.71 "Hg2 mi
1:50 PM66 °FPartly sunny.25 mph83%29.74 "Hg2 mi
12:50 PM64 °FPartly sunny.26 mph83%29.74 "Hg2 mi
11:50 AM63 °FLight rain. Broken clouds.25 mph88%29.74 "Hg2 mi
10:50 AM63 °FLight rain. Mostly cloudy.26 mph88%29.74 "Hg2 mi
9:50 AM63 °FPartly sunny.26 mph88%29.74 "Hg2 mi
8:50 AM63 °FLow clouds.24 mph88%29.74 "Hg2 mi
7:50 AM63 °FPassing clouds.23 mph88%29.74 "Hg2 mi
6:50 AM63 °FLow clouds.22 mph94%29.71 "Hg2 mi
5:50 AM63 °FPassing clouds.21 mph94%29.74 "Hg2 mi
4:50 AM63 °FLow clouds.21 mph94%29.74 "Hg3 mi
Weather by CustomWeather, © 2014

See weather overviewHow to use our weather pages